Vertical_Velocity
26 -13 -5 5 6 8 -17 12 -14 47 5 4 10 2 -3 -5 2 4 1 -2 -2 -2 -2 -2 -2 -2 -0 -1 -2 -2 -2 -2 -3 -3 -2 -3 -2 -2 -1 -3 -1 -0 -1 -1
0 4 -2 3 7 -7 -3 8 -11 -13 3 -4 4 2 -1 2 -1 -1 -1 -0 -2 -1 -1 -2 -0 -1 -2 -1 -1 -2 -2 -2 -3 -2 -1 -2 -3 -2 -1 -2 0 0 -2 -5
2 9 5 -9 -10 4 16 1 11 -23 26 15 -2 3 -2 -3 -1 -1 -2 -1 -1 -3 -2 -2 -1 -0 -0 -2 -1 -1 -2 -2 -2 -2 -1 -2 -2 -2 -1 -1 -1 -3 -1 -3
-4 14 -19 1 -1 4 -3 -1 -6 -3 2 5 -6 -9 -1 3 -0 0 0 -1 -2 -2 -2 -0 1 1 -1 -2 -2 -2 -3 -0 -2 -2 -2 -3 -2 -1 -1 -4 -2 -1 -1 -4
-6 5 5 -9 -5 6 4 26 11 0 1 2 -1 7 -2 -1 0 -1 -2 -1 -1 -1 1 0 0 -1 -3 -4 -3 -3 -1 -3 -2 -3 -2 -1 -1 -2 -1 -2 -0 -3 -5 -5
-5 -12 -3 5 3 8 4 -10 -3 -2 6 3 3 -5 7 -1 -1 -1 0 1 0 -1 -1 0 -1 -2 -3 -3 -3 -1 -2 -1 -3 -3 -3 -1 -1 -1 -0 -3 -2 -5 -1 -5
9 -3 -8 5 5 4 -7 6 9 5 5 1 -10 1 5 -2 1 0 -1 -1 -2 -1 -1 -1 -2 -2 -2 -3 -2 -1 -1 -3 -2 -1 -2 -2 0 -2 -0 -2 -3 -4 -3 -1
6 -9 -10 4 4 5 14 6 4 3 -5 1 5 -3 0 0 -2 -0 -0 -1 0 -1 -1 -2 -2 -2 -2 -2 0 -1 -2 -2 -2 -2 -2 -1 -1 -0 -4 -7 -3 -2 -2 0
-2 10 7 3 9 -0 2 -1 -0 2 2 2 1 1 0 1 2 2 -0 -0 -0 -0 -2 -2 -1 -1 0 -1 -1 -1 -3 -3 -1 -0 -1 -3 -4 -4 -2 -5 -3 -1 -2 -1
6 -7 -1 -1 -3 -2 -4 1 3 1 1 4 5 2 -2 -1 0 1 1 -2 -3 -2 -2 0 -1 -1 -1 -1 -2 -3 -1 -1 -1 -1 -3 -5 -5 -5 -2 -4 -3 -3 -4 -3
-3 0 4 4 -1 -1 -3 2 4 3 -0 -1 -0 -1 -0 1 -0 -1 -1 -0 -0 -1 -0 -1 -2 -3 -3 -1 -1 -0 -1 -2 -2 -3 -4 -3 -2 -1 1 -3 -5 -4 -4 -2
-2 -0 -3 -1 -2 -5 -1 0 -2 -2 -2 -1 -0 0 -2 -2 -3 -1 0 -0 -1 -0 -1 -1 -2 -2 -1 -3 -4 -3 -2 -3 -3 -3 -3 -2 -1 1 -0 -2 -4 -7 -3 -6
4 2 2 5 9 8 4 -2 -3 1 3 1 -2 -3 -1 -1 -1 -0 -0 -1 -1 -1 -2 -1 -1 -3 -3 -2 -3 -5 -4 -3 -3 -2 -2 -2 -2 -2 -3 9 -5 -5 -3 0
5 3 2 1 -1 -2 -6 -6 -6 -3 -2 -3 -2 -0 -0 0 0 -1 -2 -1 -1 -3 -1 -0 -3 -5 -3 -4 -3 -3 -4 -3 -3 -1 -3 -2 -3 -3 -4 -4 5 10 -10 -2
-1 2 4 4 3 2 3 3 2 0 0 -0 0 0 0 -1 -0 -1 0 -0 -2 -2 -2 -3 -4 -4 -4 -3 -3 -3 -2 -2 -2 -2 -2 -2 -2 -2 -2 -1 -1 0 4 -3
2 2 4 2 0 3 2 2 2 3 2 2 1 0 -0 -1 -1 -0 -1 -3 -4 -4 -3 -3 -3 -3 -4 -5 -3 -3 -3 -3 -2 -2 -1 -2 -2 1 -2 -1 -2 -0 0 2
2 1 1 2 2 3 4 3 3 2 1 0 -0 -0 -1 -1 -1 -1 -2 -1 -0 -4 -3 -3 -2 -4 -3 -4 -3 -3 -2 -2 -3 0 0 -1 -1 -2 0 -1 -1 0 -1 -0
5 3 3 2 0 1 1 1 1 1 1 1 0 0 0 -0 -1 -1 -2 -3 -2 -6 -3 -3 -5 -4 -3 -3 -3 -3 -3 -1 -1 0 -1 1 -0 -1 -1 -0 -0 -0 -1 0
1 1 2 2 1 1 2 2 3 2 2 1 0 -0 -0 0 -2 -3 -3 -4 -2 -5 -7 -4 -2 -3 -2 -2 -2 -2 -1 -0 -0 -0 0 0 -1 -0 -1 -1 -0 -0 -0 -0
-1 -0 3 4 4 3 2 2 1 -0 -1 0 1 -0 -3 -4 -5 -3 -3 -5 -2 -4 -3 -3 -4 -3 -1 -1 -1 -0 -1 -1 -1 -0 -0 0 -0 -2 -2 -1 -1 -1 -0 0
3 3 2 2 1 0 -2 -1 -0 1 0 -2 -4 -5 -6 -4 -2 -3 -2 -5 -2 -3 -4 -3 -2 -1 -0 -1 -0 -1 -1 -1 -0 -0 1 -0 -1 -1 -1 -1 -1 -0 -0 -1
2 1 0 -0 -1 -0 -0 -1 -2 -3 -4 -5 -4 -2 -2 -5 -4 -3 -2 -5 -3 -3 -2 0 -1 -0 -1 -1 -1 -1 -1 -0 1 0 -1 -1 -1 -1 -1 -1 -0 -0 -0 -0
-1 -0 -1 -1 -1 -2 -3 -3 -3 -3 -3 -4 -3 -3 -5 -5 -2 -5 -3 -1 -2 -2 -2 -0 -1 -1 -2 -2 -1 -0 0 1 -0 -0 -0 0 -1 -1 -0 -0 -1 -1 -0 -1
-1 -2 -2 -2 -3 -4 -2 -2 -2 -2 -4 -6 -5 -5 -5 -3 0 -4 -2 -1 -1 -0 -1 -1 -2 -2 -1 0 1 0 -0 -0 -0 -1 -1 -1 -0 -0 -1 -1 -0 1 0 -0
-2 -2 -3 -4 -5 -5 -5 -5 -8 -9 -7 -5 -3 -3 -2 -2 -0 -2 -2 -1 -1 -1 -1 -1 -1 0 1 0 -1 -1 -0 -1 -1 -1 -1 -1 -1 -1 -1 -0 -0 -0 0 1
-4 -5 -5 -6 -6 -6 -5 -5 -6 -5 -4 -1 -1 -2 -1 -2 -0 -0 -1 -1 -2 -1 -1 -0 0 -0 -1 -1 0 -1 -1 -1 -0 -1 -1 -1 -1 -1 -0 1 1 2 1 0
-3 -4 -5 -3 -3 -4 -5 -4 -5 -3 -3 -3 -2 -3 -1 -1 -1 -1 -1 -1 -1 -1 -0 -1 -1 -1 -0 -1 -1 -1 -1 -0 -0 -1 -2 -1 -0 1 1 1 1 -0 0 0
Height
5615 5617 5625 5632 5638 5643 5648 5660 5657 5672 5670 5673 5677 5679 5681 5685 5689 5692 5693 5695 5695 5696 5695 5695 5693 5692 5689 5687 5684 5682 5678 5674 5670 5665 5660 5654 5648 5641 5634 5627 5619 5611 5603 5595
5603 5610 5615 5620 5626 5632 5640 5644 5647 5652 5659 5662 5666 5669 5672 5676 5679 5680 5682 5684 5684 5684 5683 5683 5681 5679 5677 5675 5671 5668 5665 5660 5655 5650 5644 5638 5631 5624 5618 5610 5602 5594 5586 5576
5590 5598 5602 5605 5619 5625 5632 5635 5643 5645 5652 5655 5658 5660 5663 5666 5668 5671 5672 5673 5672 5672 5672 5671 5668 5666 5664 5661 5658 5655 5650 5645 5640 5634 5628 5621 5615 5608 5601 5593 5585 5576 5567 5559
5577 5584 5586 5603 5606 5614 5619 5625 5630 5634 5638 5643 5646 5649 5653 5656 5658 5660 5661 5660 5660 5660 5658 5657 5655 5653 5650 5648 5645 5641 5636 5630 5624 5617 5611 5604 5598 5591 5583 5575 5566 5558 5550 5540
5564 5571 5582 5587 5598 5605 5610 5618 5621 5624 5629 5633 5636 5640 5643 5645 5647 5648 5648 5648 5647 5647 5646 5644 5643 5640 5638 5635 5631 5626 5620 5613 5606 5600 5594 5588 5581 5574 5566 5558 5550 5542 5531 5520
5557 5561 5568 5577 5587 5594 5598 5605 5610 5614 5619 5623 5626 5630 5633 5633 5635 5635 5635 5636 5635 5635 5634 5632 5630 5628 5624 5620 5615 5610 5603 5597 5590 5584 5578 5572 5564 5557 5550 5541 5533 5523 5512 5499
5548 5554 5558 5566 5575 5582 5589 5601 5601 5605 5608 5612 5615 5619 5620 5621 5622 5623 5623 5623 5623 5622 5621 5620 5617 5613 5608 5604 5599 5593 5587 5581 5575 5569 5562 5555 5549 5541 5533 5525 5516 5505 5493 5479
5539 5545 5552 5559 5565 5574 5582 5584 5589 5594 5597 5602 5605 5607 5608 5610 5611 5611 5611 5610 5609 5609 5607 5605 5601 5597 5593 5588 5583 5577 5572 5566 5560 5553 5547 5540 5533 5524 5516 5506 5496 5483 5471 5460
5534 5542 5546 5553 5561 5563 5568 5573 5578 5582 5586 5589 5592 5595 5597 5598 5599 5598 5598 5598 5597 5595 5592 5589 5586 5582 5578 5573 5568 5563 5557 5551 5545 5539 5531 5523 5516 5508 5498 5485 5473 5463 5453 5445
5525 5530 5537 5542 5547 5552 5557 5563 5567 5571 5575 5579 5581 5583 5583 5585 5586 5586 5585 5583 5581 5579 5577 5574 5570 5567 5563 5559 5554 5549 5544 5537 5530 5523 5515 5507 5499 5488 5476 5464 5455 5446 5440 5434
5514 5521 5527 5533 5539 5544 5548 5553 5557 5560 5562 5564 5567 5569 5571 5572 5572 5571 5570 5568 5566 5564 5562 5560 5557 5553 5549 5545 5540 5535 5529 5521 5514 5507 5499 5491 5481 5469 5457 5446 5439 5435 5429 5423
5506 5511 5518 5523 5528 5533 5538 5542 5545 5548 5551 5553 5555 5556 5557 5558 5557 5557 5555 5554 5553 5551 5549 5546 5543 5539 5536 5531 5525 5519 5512 5505 5499 5491 5482 5472 5462 5453 5443 5434 5429 5423 5417 5413
5498 5501 5507 5513 5517 5521 5526 5530 5533 5536 5538 5540 5541 5541 5542 5543 5543 5543 5543 5542 5541 5539 5536 5533 5530 5526 5522 5516 5510 5503 5497 5491 5483 5473 5463 5453 5445 5439 5434 5427 5417 5413 5409 5404
5488 5493 5498 5502 5506 5510 5513 5517 5520 5523 5525 5526 5527 5528 5529 5531 5531 5531 5531 5529 5527 5525 5523 5520 5516 5511 5506 5501 5495 5489 5482 5473 5464 5455 5446 5439 5434 5428 5422 5417 5413 5407 5400 5395
5478 5484 5488 5492 5496 5499 5503 5506 5508 5510 5512 5514 5516 5518 5519 5520 5520 5519 5518 5517 5515 5512 5510 5506 5501 5497 5492 5486 5480 5472 5464 5455 5446 5439 5433 5428 5424 5418 5413 5408 5404 5399 5394 5388
5471 5475 5479 5483 5486 5490 5493 5496 5498 5501 5503 5505 5506 5508 5509 5509 5509 5508 5507 5505 5502 5499 5496 5492 5488 5483 5476 5470 5462 5453 5444 5437 5432 5428 5424 5419 5414 5409 5404 5401 5396 5391 5387 5383
5467 5471 5474 5477 5481 5484 5487 5489 5491 5493 5495 5496 5497 5497 5497 5497 5497 5495 5493 5491 5489 5485 5482 5478 5472 5466 5458 5451 5442 5436 5430 5425 5422 5418 5415 5410 5405 5401 5397 5393 5389 5384 5380 5375
5462 5466 5469 5472 5475 5477 5479 5481 5482 5484 5485 5486 5487 5487 5486 5486 5484 5483 5481 5478 5475 5470 5466 5461 5455 5447 5440 5433 5428 5424 5420 5417 5413 5410 5406 5402 5398 5394 5390 5385 5381 5376 5372 5368
5456 5459 5462 5464 5467 5469 5471 5473 5474 5475 5476 5476 5476 5476 5475 5474 5473 5470 5467 5464 5460 5454 5449 5443 5436 5431 5427 5423 5419 5416 5412 5409 5405 5402 5398 5394 5391 5387 5382 5378 5373 5369 5365 5362
5450 5453 5455 5458 5460 5462 5464 5465 5466 5466 5467 5467 5466 5465 5464 5463 5462 5458 5454 5449 5444 5437 5432 5427 5424 5420 5418 5414 5411 5408 5404 5401 5397 5393 5390 5387 5383 5379 5375 5370 5366 5362 5359 5356
5444 5447 5449 5451 5453 5455 5456 5457 5458 5457 5457 5456 5455 5454 5451 5449 5446 5442 5437 5432 5428 5424 5421 5418 5415 5412 5409 5406 5403 5400 5396 5392 5389 5386 5383 5379 5375 5371 5367 5363 5360 5357 5353 5350
5440 5442 5443 5445 5446 5447 5447 5447 5447 5446 5445 5444 5442 5439 5436 5434 5431 5426 5423 5419 5418 5415 5412 5410 5407 5404 5401 5398 5395 5391 5387 5384 5382 5379 5375 5371 5368 5364 5361 5358 5355 5351 5348 5345
5435 5436 5437 5438 5438 5438 5438 5437 5436 5434 5432 5430 5428 5426 5423 5420 5417 5414 5413 5411 5409 5406 5404 5402 5400 5397 5394 5390 5387 5384 5381 5379 5376 5372 5368 5364 5361 5359 5356 5353 5350 5347 5344 5341
5430 5431 5431 5430 5430 5429 5428 5426 5424 5421 5419 5417 5415 5412 5409 5408 5406 5404 5404 5403 5401 5400 5398 5396 5393 5390 5386 5384 5382 5380 5377 5374 5371 5367 5363 5360 5358 5356 5353 5351 5348 5345 5341 5337
5425 5424 5424 5422 5421 5419 5417 5415 5412 5409 5407 5404 5402 5400 5398 5397 5397 5396 5396 5395 5395 5393 5392 5390 5387 5385 5383 5381 5379 5376 5373 5370 5366 5363 5361 5359 5357 5355 5352 5349 5346 5343 5339 5335
5419 5418 5417 5415 5413 5410 5407 5404 5400 5397 5394 5392 5390 5388 5387 5387 5388 5389 5389 5388 5388 5387 5386 5385 5383 5382 5380 5378 5376 5373 5370 5367 5365 5363 5361 5359 5357 5355 5352 5350 5347 5343 5340 5335
5413 5411 5409 5406 5403 5399 5395 5392 5388 5384 5380 5376 5374 5373 5374 5376 5378 5379 5381 5382 5383 5383 5382 5382 5381 5380 5378 5377 5374 5372 5370 5368 5366 5364 5362 5361 5358 5357 5354 5352 5348 5345 5341 5337